Weather History for KBLF - December, 2013

Change the Weather History Date:

Thursday, December 5, 2013

  Actual Average Record
Temperature  
Mean Temperature 63 °F 40 °F  
Max Temperature 69 °F 48 °F 71 °F (2001)
Min Temperature 57 °F 32 °F 6 °F (1974)
Degree Days  
Heating Degree Days 2 25  
Month to date heating degree days 68 122  
Since 1 July heating degree days 1020 1025  
Cooling Degree Days 0 0  
Month to date cooling degree days 0 0  
Year to date cooling degree days 938 853  
Growing Degree Days 12 (Base 50)    
Moisture  
Dew Point 50 °F    
Average Humidity 64    
Maximum Humidity 73    
Minimum Humidity 55    
Precipitation  
Precipitation 0.04 in 0.10 in 0.54 in (2002)
Month to date precipitation 0.04 0.49  
Year to date precipitation 37.05 37.21  
Snow  
Snow 0.00 in - - ()
Month to date snowfall 0.0  
Since 1 July snowfall 3.6  
Snow Depth 0.00 in    
Sea Level Pressure  
Sea Level Pressure 29.97 in    
Wind  
Wind Speed 7 mph (SSW)    
Max Wind Speed 15 mph    
Max Gust Speed 23 mph    
Visibility 10 miles    
Events Rain    
T = Trace of Precipitation, MM = Missing Value Source: NWS Daily Summary

Daily Weather History Graph

Daily Weather History Graph

Search for Another Location

Airport or City:

Trip Planner

Search our weather history database for the weather conditions in past years. The results will help you decide how hot, cold, wet, or windy it might be!

Date:

Astronomy

Dec. 05, 2013 Rise Set
Actual Time 7:24 AM EST 5:07 PM EST
Civil Twilight 6:55 AM EST 5:35 PM EST
Nautical Twilight 6:22 AM EST 6:08 PM EST
Astronomical Twilight 5:51 AM EST 6:39 PM EST
Moon 9:44 AM EST (12/5) 8:23 PM EST (12/5)
Length of Visible Light 10h 40m
Length of Day
9h 42m
Waxing Crescent, 10% of the Moon is Illuminated
Dec 5
Waxing Crescent
Dec 9
First Quarter
Dec 17
Full
Dec 25
Last Quarter
Jan 1
New

Hourly Weather History & Observations

Time (EST) Temp. Dew Point Humidity Pressure Visibility Wind Dir Wind Speed Gust Speed Precip Events Conditions
12:52 AM 57.9 °F 46.0 °F 65% 29.96 in 10.0 mi South 8.1 mph - N/A   Clear
1:52 AM 57.9 °F 46.0 °F 65% 29.95 in 10.0 mi SSW 5.8 mph - N/A   Clear
2:52 AM 57.9 °F 46.0 °F 65% 29.96 in 10.0 mi SSW 4.6 mph - N/A   Clear
3:52 AM 60.1 °F 46.0 °F 60% 29.96 in 10.0 mi SW 4.6 mph - N/A   Clear
4:52 AM 57.0 °F 46.0 °F 67% 29.98 in 10.0 mi SW 3.5 mph - N/A   Clear
5:18 AM 60.8 °F 46.4 °F 59% 30.05 in 10.0 mi SSW 3.5 mph - N/A   Mostly Cloudy
5:37 AM 60.8 °F 46.4 °F 59% 30.05 in 10.0 mi South 4.6 mph - N/A   Overcast
5:52 AM 62.1 °F 46.9 °F 58% 29.98 in 10.0 mi South 4.6 mph - N/A   Mostly Cloudy
6:52 AM 61.0 °F 46.9 °F 60% 30.00 in 10.0 mi SW 4.6 mph - N/A   Clear
7:52 AM 61.0 °F 48.0 °F 62% 30.01 in 10.0 mi South 5.8 mph - N/A   Mostly Cloudy
8:52 AM 62.1 °F 48.9 °F 62% 30.02 in 10.0 mi South 3.5 mph - N/A   Partly Cloudy
9:52 AM 63.0 °F 48.9 °F 60% 30.01 in 10.0 mi SSW 8.1 mph - N/A   Clear
10:52 AM 62.1 °F 50.0 °F 65% 30.02 in 10.0 mi Variable 5.8 mph - N/A   Clear
11:52 AM 66.0 °F 51.1 °F 59% 29.99 in 10.0 mi WSW 8.1 mph - N/A   Scattered Clouds
12:52 PM 68.0 °F 51.1 °F 55% 29.97 in 10.0 mi WSW 9.2 mph - N/A   Clear
1:52 PM 68.0 °F 51.1 °F 55% 29.94 in 10.0 mi SW 9.2 mph - N/A   Partly Cloudy
2:52 PM 68.0 °F 52.0 °F 56% 29.94 in 10.0 mi SW 9.2 mph 17.3 mph N/A   Overcast
3:52 PM 64.9 °F 53.1 °F 65% 29.94 in 10.0 mi WSW 8.1 mph - 0.00 in Rain Light Rain
4:52 PM 66.9 °F 52.0 °F 59% 29.94 in 10.0 mi SW 6.9 mph - 0.00 in   Overcast
5:52 PM 66.9 °F 51.1 °F 57% 29.94 in 10.0 mi Calm Calm - 0.00 in   Overcast
6:52 PM 64.0 °F 52.0 °F 65% 29.94 in 10.0 mi Variable 4.6 mph - 0.00 in Rain Light Rain
7:52 PM 64.0 °F 52.0 °F 65% 29.92 in 10.0 mi South 9.2 mph - 0.00 in   Mostly Cloudy
8:52 PM 64.0 °F 54.0 °F 70% 29.91 in 10.0 mi Variable 6.9 mph - 0.01 in   Overcast
9:52 PM 64.0 °F 55.0 °F 73% 29.92 in 10.0 mi South 10.4 mph 21.9 mph N/A   Overcast
10:52 PM 64.0 °F 55.0 °F 73% 29.93 in 10.0 mi SSW 9.2 mph 16.1 mph N/A   Overcast
11:13 PM 62.6 °F 55.4 °F 77% 30.00 in 6.0 mi SSW 4.6 mph - 0.03 in Rain Light Rain
11:20 PM 62.6 °F 57.2 °F 82% 30.01 in 8.0 mi Variable 5.8 mph - 0.03 in Rain Light Rain
11:52 PM 63.0 °F 55.9 °F 78% 29.92 in 10.0 mi WSW 6.9 mph - 0.03 in   Overcast